Tracking 31027 objects as of 19-Jul-2025
HD Live streaming from Space Station
objects crossing your sky now

STARLINK-31112

Track STARLINK-31112 now!
10-day predictions
STARLINK-31112 is classified as:


NORAD ID: 58680
Int'l Code: 2023-211P
Perigee: 489.9 km
Apogee: 490.5 km
Inclination: 43.0 °
Period: 94.3 minutes
Semi major axis: 6861 km
RCS: Unknown
Launch date: December 29, 2023
Source: United States (US)
Launch site: AIR FORCE EASTERN TEST RANGE (AFETR)
Your satellite tracking list
STARLINK-5403
Track 1 satellite(s)




NASA's NSSDC Master Catalog

Two Line Element Set (TLE):
1 58680U 23211P   25199.79113739  .00001982  00000-0  81511-4 0  9992
2 58680  43.0056 326.1460 0000452 252.4217 107.6586 15.27585213 87875
Source of the keplerian elements: AFSPC